[[{"header":{"parameterUnit":"m.s-1","parameterCategory":1,"la1":30.2991,"la2":30.254,"lo1":-89.0895,"lo2":-89.0444,"dy":0.0017,"dx":0.0017,"nx":28,"ny":28,"refTime":"2025-09-12T09:00:00:Z","depth":0,"parameterNumber":2,"parameterNumberName":"U-component_of_WINDS"},"data":[0,0,0,0,0,0,0,0,0,0,0,0,0,0,0,0,0,0,0,0,0,0,0,0,0,0,0,0,0,0,0,0,0,0,0,0,0,0,0,0,0,0,0,0,0,0,0,0,0,0,0,0,0,0,0,0,0,0,-2.9636,-2.9635,0,-2.9562,-2.9561,-2.9561,-2.9463,-2.9461,-2.946,-2.9458,-2.938,-2.938,-2.9379,0,0,0,0,0,0,0,0,0,0,0,0,0,-2.9691,-2.9691,-2.9636,-2.9635,-2.9634,-2.9562,-2.9561,-2.956,-2.9463,-2.9461,-2.9459,-2.9457,-2.9381,-2.938,-2.9379,0,0,0,0,0,0,0,0,0,0,0,0,0,-2.9648,-2.9691,-2.9636,-2.9577,-2.9571,-2.9563,-2.9561,-2.956,-2.9463,-2.9461,-2.9459,-2.9456,-2.9381,-2.938,-2.9379,-2.9422,0,0,-2.9377,-2.9376,0,0,0,0,0,0,0,0,-2.965,-2.9646,-2.9587,-2.9581,-2.9574,-2.9519,-2.9552,-2.9514,-2.9464,-2.9504,-2.9458,-2.9455,-2.9428,-2.9424,-2.9415,-2.9419,-2.9415,-2.9376,-2.9376,-2.9376,-2.9375,0,0,0,0,0,0,0,-2.9653,-2.9648,-2.9607,-2.9586,-2.9578,-2.9554,-2.9545,-2.9545,-2.9481,-2.9501,-2.9493,-2.9486,-2.9425,-2.9416,-2.9412,-2.9414,-2.9377,-2.9376,-2.9375,-2.9375,-2.945,-2.9452,0,0,0,0,0,0,-2.9665,-2.9651,-2.9609,-2.9604,-2.9607,-2.9555,-2.9545,-2.9539,-2.948,-2.9469,-2.9488,-2.9482,-2.9419,-2.9413,-2.9409,-2.9456,-2.9376,-2.9375,-2.9374,-2.9447,-2.945,-2.9453,0,0,0,0,0,0,-2.9667,-2.9663,-2.9612,-2.9626,-2.9618,-2.9556,-2.9551,-2.9539,-2.953,-2.9471,-2.9459,-2.9491,-2.9417,-2.941,-2.942,-2.9452,-2.9374,-2.9374,-2.9444,-2.9448,-2.9452,-2.955,0,0,0,0,0,0,-2.9669,-2.9664,-2.968,-2.9627,-2.9617,-2.9625,-2.9553,-2.9539,-2.9529,-2.952,-2.9471,-2.946,-2.9414,-2.9422,-2.9419,-2.9449,-2.9373,-2.9441,-2.9446,-2.9451,-2.9543,-2.9556,-2.9567,0,0,0,0,0,-2.9671,-2.9709,-2.9681,-2.9676,-2.9636,-2.9627,-2.9621,-2.9568,-2.9532,-2.9548,-2.951,-2.9462,-2.9449,-2.9424,-2.942,-2.945,-2.9439,-2.9445,-2.945,-2.9538,-2.9554,-2.9567,0,0,0,0,0,0,-2.9766,-2.9701,-2.9669,-2.9691,-2.9665,-2.961,-2.9627,-2.9586,-2.9569,-2.9561,-2.9495,-2.9485,-2.9503,-2.9477,-2.945,-2.9489,-2.9437,-2.9442,-2.9505,-2.9519,-2.9531,-2.9536,-2.9372,0,0,0,0,0,-2.979,-2.9788,-2.9731,-2.9756,-2.9745,-2.9689,-2.9683,-2.9645,-2.9615,-2.9603,-2.9566,-2.9538,-2.9528,-2.9522,-2.9509,-2.954,-2.9527,-2.9559,-2.9571,-2.9581,-2.9586,-2.96,-2.9614,-2.9472,-2.9472,-2.9471,0,0,-2.9838,-2.9802,-2.9805,-2.9775,-2.975,-2.9749,-2.968,-2.9682,-2.9681,-2.9603,-2.961,-2.9582,-2.9547,-2.9567,-2.9574,-2.9546,-2.9623,-2.9588,-2.9597,-2.9596,-2.9607,-2.9621,-2.9633,-2.9475,-2.9475,-2.9474,0,0,-2.9925,-2.9899,-2.9917,-2.9894,-2.9858,-2.9821,-2.9826,-2.9777,-2.9756,-2.9762,-2.9704,-2.9701,-2.9685,-2.9663,-2.9649,-2.9731,-2.9686,-2.9729,-2.9791,-2.9806,-2.9817,-2.9827,-2.9856,-2.9867,-2.9734,-2.9734,-2.9734,0,-2.999,-2.9987,-2.9931,-2.9937,-2.9926,-2.9857,-2.9874,-2.9855,-2.9817,-2.981,-2.978,-2.9759,-2.973,-2.9745,-2.9765,-2.9757,-2.976,-2.9733,-2.982,-2.9829,-2.9838,-2.9865,-2.9876,-2.974,-2.9739,-2.9738,-2.9738,0,-3.0068,-3.0067,-3.0086,-3.0052,-3.0042,-3.0055,-3.0001,-2.9998,-2.9961,-2.9927,-2.9935,-2.9899,-2.9878,-2.9879,-2.9842,-2.9888,-2.9872,-2.9833,-2.9779,-2.9857,-2.9882,-2.9892,-2.9747,-2.9745,-2.9744,-2.9742,0,0,-3.021,-3.0147,-3.0155,-3.0139,-3.0096,-3.0094,-3.0103,-3.0084,-3.0083,-3.0059,-3.0065,-3.0054,-3.0018,-3.0003,-2.9963,-2.9977,-3.0044,-2.9935,-2.9933,-2.9956,-3.0093,-3.0123,-3.0136,-3.0015,-3.0016,-3.0018,-3.0096,0,-3.0289,-3.0302,-3.0253,-3.0278,-3.0277,-3.0212,-3.022,-3.0195,-3.0164,-3.0158,-3.0124,-3.0117,-3.0069,-3.006,-3.007,-3.0034,-3.007,-3.0027,-3.0019,-3.002,-3.0029,-3.0148,-3.0179,-3.0254,-3.0105,-3.0106,-3.0108,0,-3.0382,-3.0365,-3.039,-3.0346,-3.0344,-3.0352,-3.0331,-3.0327,-3.0297,-3.0273,-3.0258,-3.0213,-3.0219,-3.017,-3.0177,-3.0149,-3.0143,-3.0125,-3.0126,-3.0123,-3.0068,-3.0147,-3.0277,-3.0288,-3.0122,-3.0121,-3.012,0,-3.0483,-3.0466,-3.0479,-3.0468,-3.0417,-3.0425,-3.0404,-3.0372,-3.0364,-3.0346,-3.034,-3.0323,-3.0313,-3.0301,-3.0252,-3.022,-3.0266,-3.0211,-3.0246,-3.0248,-3.0257,-3.0257,-3.0388,-3.0255,-3.0255,-3.0255,-3.0255,0,-3.0575,-3.0593,-3.0524,-3.0532,-3.0551,-3.0495,-3.0515,-3.0488,-3.046,-3.0462,-3.0405,-3.0408,-3.0345,-3.034,-3.0303,-3.0315,-3.0311,-3.0292,-3.0282,-3.0297,-3.0299,-3.0291,-3.0284,-3.0258,-3.0257,-3.0257,-3.0256,0,-3.069,-3.0645,-3.0655,-3.0607,-3.0596,-3.0612,-3.0571,-3.0576,-3.0543,-3.0546,-3.0543,-3.0491,-3.0483,-3.0435,-3.0415,-3.039,-3.0416,-3.0395,-3.0426,-3.0419,-3.0457,-3.0454,-3.0586,-3.06,-3.046,-3.0461,-3.0463,0,-3.0751,-3.0764,-3.0718,-3.0716,-3.0698,-3.0694,-3.0687,-3.0633,-3.0627,-3.0595,-3.0605,-3.0593,-3.058,-3.0571,-3.0531,-3.0516,-3.0495,-3.0542,-3.0492,-3.0507,-3.0495,-3.0495,-3.0496,-3.0552,-3.0554,-3.0556,-3.0557,0,-3.0864,-3.0842,-3.0833,-3.0817,-3.081,-3.0794,-3.0775,-3.0777,-3.0717,-3.0714,-3.0706,-3.0697,-3.0678,-3.0667,-3.0646,-3.0624,-3.0581,-3.0574,-3.0581,-3.0595,-3.0613,-3.0604,-3.0455,-3.057,-3.0569,-3.0568,-3.0567,-3.0567,-3.0953,-3.0962,-3.0932,-3.0924,-3.0905,-3.0889,-3.0892,-3.086,-3.0853,-3.0835,-3.0804,-3.0801,-3.0771,-3.0739,-3.0721,-3.0718,-3.0693,-3.0703,-3.0706,-3.0709,-3.0717,-3.0615,-3.0714,-3.0714,-3.0713,-3.0713,-3.0712,0,-3.1063,-3.1041,-3.1035,-3.1011,-3.1006,-3.0967,-3.0945,-3.0942,-3.0941,-3.0918,-3.0908,-3.0899,-3.0889,-3.085,-3.0835,-3.084,-3.082,-3.0838,-3.0836,-3.0832,-3.074,-3.0735,-3.0855,-3.0855,-3.0855,-3.0855,-3.0855,-3.0855,-3.1119,-3.1132,-3.1107,-3.111,-3.1087,-3.1085,-3.1075,-3.1061,-3.1042,-3.1036,-3.1028,-3.1003,-3.0973,-3.0956,-3.0946,-3.0934,-3.0931,-3.0956,-3.0938,-3.0852,-3.0839,-3.0826,-3.0821,-3.0956,-3.0956,-3.103,-3.1031,-3.1031]},{"header":{"parameterUnit":"m.s-1","parameterCategory":1,"la1":30.2991,"la2":30.254,"lo1":-89.0895,"lo2":-89.0444,"dy":0.0017,"dx":0.0017,"nx":28,"ny":28,"refTime":"2025-09-12T09:00:00:Z","depth":0,"parameterNumber":3,"parameterNumberName":"V-component_of_WINDS"},"data":[0,0,0,0,0,0,0,0,0,0,0,0,0,0,0,0,0,0,0,0,0,0,0,0,0,0,0,0,0,0,0,0,0,0,0,0,0,0,0,0,0,0,0,0,0,0,0,0,0,0,0,0,0,0,0,0,0,0,2.8506,2.8505,0,2.8474,2.8474,2.8473,2.844,2.8439,2.8439,2.8439,2.8404,2.8404,2.8403,0,0,0,0,0,0,0,0,0,0,0,0,0,2.8536,2.8535,2.8506,2.8505,2.8505,2.8474,2.8474,2.8473,2.844,2.8439,2.8439,2.8438,2.8405,2.8404,2.8403,0,0,0,0,0,0,0,0,0,0,0,0,0,2.8515,2.8535,2.8506,2.8485,2.8482,2.8474,2.8474,2.8473,2.844,2.8439,2.8439,2.8438,2.8405,2.8404,2.8403,2.8413,0,0,2.8401,2.8401,0,0,0,0,0,0,0,0,2.8516,2.8514,2.8488,2.8486,2.8484,2.846,2.8472,2.8453,2.844,2.8456,2.8439,2.8438,2.8423,2.8421,2.8417,2.8411,2.841,2.8401,2.8401,2.84,2.84,0,0,0,0,0,0,0,2.8518,2.8515,2.8493,2.8488,2.8485,2.8476,2.8473,2.8468,2.8444,2.8455,2.8452,2.8449,2.8422,2.8417,2.8416,2.8409,2.8401,2.84,2.84,2.84,2.8409,2.8409,0,0,0,0,0,0,2.8523,2.8517,2.8494,2.8492,2.8499,2.8476,2.8472,2.8468,2.8444,2.844,2.845,2.8448,2.8419,2.8416,2.8414,2.8422,2.84,2.84,2.8399,2.8408,2.8409,2.8409,0,0,0,0,0,0,2.8524,2.8521,2.8495,2.8504,2.85,2.8477,2.8473,2.8468,2.8463,2.844,2.8436,2.8449,2.8418,2.8415,2.8413,2.8421,2.8399,2.8399,2.8407,2.8408,2.8409,2.844,0,0,0,0,0,0,2.8525,2.8522,2.8525,2.8504,2.85,2.8495,2.8473,2.8468,2.8463,2.846,2.8439,2.8435,2.8418,2.8414,2.8413,2.8419,2.8398,2.8406,2.8408,2.8409,2.8438,2.8442,2.8445,0,0,0,0,0,2.8526,2.8535,2.8526,2.8523,2.8504,2.8496,2.8493,2.8474,2.8463,2.8466,2.8451,2.8435,2.8421,2.8415,2.8412,2.8419,2.8406,2.8407,2.8409,2.8436,2.8441,2.8445,0,0,0,0,0,0,2.8557,2.8532,2.8521,2.8524,2.8512,2.849,2.8494,2.848,2.847,2.8468,2.8444,2.844,2.844,2.8429,2.8423,2.8426,2.8411,2.8412,2.8433,2.8437,2.844,2.8442,2.8397,0,0,0,0,0,2.8564,2.856,2.8539,2.8543,2.8538,2.8517,2.8513,2.8499,2.8486,2.8481,2.8466,2.8453,2.8445,2.8441,2.8433,2.8437,2.8431,2.844,2.8444,2.8447,2.8447,2.8447,2.8451,2.8414,2.8414,2.8414,0,0,2.8579,2.8565,2.8564,2.8549,2.8538,2.8534,2.8513,2.851,2.8506,2.848,2.8477,2.8466,2.845,2.8451,2.845,2.8442,2.8456,2.8449,2.8451,2.845,2.8449,2.8453,2.8456,2.8415,2.8415,2.8415,0,0,2.8603,2.8593,2.8595,2.8585,2.857,2.8556,2.8556,2.8537,2.8528,2.8525,2.8505,2.85,2.8488,2.8477,2.847,2.8491,2.8475,2.8489,2.8507,2.8507,2.851,2.8512,2.8518,2.8521,2.849,2.8491,2.8491,0,2.8623,2.8616,2.8597,2.8595,2.8589,2.8566,2.8568,2.8559,2.8541,2.8537,2.8529,2.8512,2.85,2.8498,2.8503,2.8499,2.8497,2.8491,2.8511,2.8513,2.8515,2.8521,2.8523,2.8492,2.8492,2.8492,2.8492,0,2.8641,2.8637,2.8641,2.8625,2.8619,2.8619,2.8599,2.8595,2.8583,2.857,2.8566,2.8551,2.8539,2.8538,2.8525,2.8533,2.8528,2.8516,2.85,2.8521,2.8525,2.8527,2.8495,2.8494,2.8493,2.8493,0,0,2.8682,2.8657,2.8658,2.865,2.8632,2.8628,2.8627,2.8616,2.8612,2.8602,2.8599,2.8589,2.8578,2.857,2.8556,2.8557,2.8572,2.8544,2.8543,2.8548,2.8578,2.8586,2.8589,2.8563,2.8563,2.8563,2.8579,0,2.8702,2.8698,2.8681,2.8682,2.8678,2.8656,2.8655,2.8643,2.8631,2.8625,2.8612,2.8605,2.8591,2.8586,2.8586,2.857,2.8578,2.8569,2.8558,2.8558,2.8561,2.8592,2.86,2.8616,2.8581,2.8581,2.8582,0,2.8724,2.8715,2.8715,2.8697,2.8694,2.8693,2.8682,2.8677,2.8663,2.8654,2.8645,2.863,2.8626,2.8613,2.8607,2.8601,2.8596,2.8588,2.8588,2.8585,2.857,2.8588,2.8621,2.8623,2.8584,2.8584,2.8584,0,2.8751,2.874,2.8738,2.8733,2.8712,2.8711,2.8702,2.8688,2.8682,2.8672,2.8668,2.8657,2.8651,2.8643,2.8624,2.8617,2.862,2.8605,2.8611,2.8612,2.8611,2.8611,2.8642,2.8611,2.8611,2.8611,2.8611,0,2.8774,2.8775,2.875,2.8749,2.8749,2.873,2.8731,2.872,2.8707,2.8703,2.8685,2.8681,2.8658,2.8651,2.8637,2.8633,2.8631,2.8623,2.8619,2.8624,2.8624,2.8618,2.8616,2.8612,2.8611,2.8611,2.8611,0,2.8804,2.8788,2.8785,2.8766,2.8761,2.8762,2.8745,2.8743,2.873,2.8725,2.8723,2.8702,2.8694,2.8675,2.8661,2.8652,2.8651,2.8645,2.8656,2.8653,2.8659,2.8658,2.8686,2.8688,2.8658,2.8658,2.8658,0,2.8818,2.8819,2.88,2.8796,2.8788,2.8782,2.8777,2.8758,2.8753,2.8737,2.8736,2.8727,2.8717,2.8705,2.8688,2.8677,2.8669,2.868,2.8667,2.8672,2.8667,2.8667,2.8666,2.8682,2.8682,2.8683,2.8683,0,2.8845,2.8837,2.883,2.882,2.8814,2.8806,2.8796,2.8793,2.8772,2.8767,2.8758,2.8752,2.8738,2.8728,2.8715,2.8704,2.869,2.8688,2.8688,2.8692,2.8698,2.8693,2.8661,2.8686,2.8686,2.8686,2.8686,2.8686,2.8867,2.8866,2.8852,2.8845,2.8836,2.8827,2.8824,2.8811,2.8804,2.8791,2.8781,2.8773,2.8759,2.874,2.8731,2.8723,2.8716,2.8717,2.8717,2.8717,2.8719,2.8701,2.8721,2.8721,2.8721,2.8721,2.8721,0,2.8891,2.8882,2.8875,2.8862,2.8856,2.8845,2.8833,2.8829,2.8822,2.8811,2.8802,2.8792,2.8782,2.8766,2.8754,2.8751,2.8744,2.8749,2.8748,2.8746,2.8727,2.8727,2.8755,2.8755,2.8755,2.8755,2.8755,2.8755,2.8903,2.89,2.8891,2.8883,2.8874,2.8866,2.886,2.8852,2.8843,2.8832,2.8824,2.8814,2.88,2.8787,2.8778,2.8773,2.8769,2.8775,2.8768,2.875,2.8747,2.8744,2.8744,2.8775,2.8775,2.8787,2.8787,2.8787]}]]